Chillicothe, MO

7:19 AM CST on December 10, 2019 (GMT -0600)
Chillicothe

Weather History for KCDJ - October, 2019

Change the Weather History Date:

Friday, October 11, 2019

  Actual Average (WUND) Record (WUND)
Temperature  
Mean Temperature 42 °F -  
Max Temperature 48 °F - - (-1)
Min Temperature 35 °F - - (-1)
Degree Days  
Heating Degree Days 24    
Moisture  
Dew Point 31 °F    
Average Humidity 68    
Maximum Humidity 89    
Minimum Humidity 41    
Precipitation  
Precipitation 0.00 in - - ()
Sea Level Pressure  
Sea Level Pressure 30.15 in    
Wind  
Wind Speed 9 mph (WNW)    
Max Wind Speed 14 mph    
Max Gust Speed 26 mph    
Averages and records for this station are not official NWS values.
T = Trace of Precipitation, MM = Missing Value Source: NWS Daily Summary

Daily Weather History Graph

Daily Weather History Graph

Search for Another Location

Airport or City:

Astronomy

Oct. 11, 2019 Rise Set
Actual Time 7:20 AM CDT 6:41 PM CDT
Civil Twilight 6:53 AM CDT 7:08 PM CDT
Nautical Twilight 6:21 AM CDT 7:39 PM CDT
Astronomical Twilight 5:50 AM CDT 8:10 PM CDT
Moon 6:10 PM CDT (10/11) 5:01 AM CDT (10/11)
Length of Visible Light 12h 15m
Length of Day
11h 20m
Waxing Gibbous, 96% of the Moon is Illuminated
Oct 11
Waxing Gibbous
Oct 13
Full
Oct 21
Last Quarter
Oct 27
New
Nov 4
First Quarter

Hourly Weather History & Observations

Time (CDT) Temp. Windchill Dew Point Humidity Pressure Visibility Wind Dir Wind Speed Gust Speed Precip Events Conditions
12:52 AM 43.0 °F 36.8 °F 39.9 °F 89% 30.01 in - West 11.5 mph 18.4 mph N/A   Unknown
1:52 AM 42.1 °F 35.7 °F 37.9 °F 85% 30.02 in - WNW 11.5 mph 21.9 mph N/A   Unknown
2:52 AM 41.0 °F 34.7 °F 37.0 °F 86% 30.01 in - NW 10.4 mph 23.0 mph N/A   Unknown
3:52 AM 41.0 °F 33.5 °F 33.1 °F 73% 30.04 in - NW 13.8 mph 25.3 mph N/A   Unknown
4:52 AM 41.0 °F 35.2 °F 34.0 °F 76% 30.06 in - NW 9.2 mph 21.9 mph N/A   Unknown
6:52 AM 41.0 °F 39.0 °F 33.1 °F 73% 30.11 in - WNW 3.5 mph - N/A   Unknown
7:52 AM 39.9 °F 34.5 °F 33.1 °F 77% 30.12 in - NW 8.1 mph 18.4 mph N/A   Unknown
8:52 AM 41.0 °F 34.7 °F 32.0 °F 70% 30.15 in - WNW 10.4 mph 23.0 mph N/A   Unknown
9:52 AM 39.9 °F 32.9 °F 30.0 °F 68% 30.18 in - NW 11.5 mph 20.7 mph N/A   Unknown
10:52 AM 39.9 °F 35.1 °F 28.9 °F 65% 30.19 in - WNW 6.9 mph 19.6 mph N/A   Unknown
11:52 AM 43.0 °F 38.2 °F 28.9 °F 58% 30.19 in - WNW 8.1 mph 24.2 mph N/A   Unknown
12:52 PM 45.0 °F 38.9 °F 28.9 °F 53% 30.18 in - West 12.7 mph 24.2 mph N/A   Unknown
1:52 PM 46.0 °F 40.6 °F 28.9 °F 51% 30.18 in - NW 11.5 mph 20.7 mph N/A   Unknown
2:52 PM 48.0 °F - 28.0 °F 46% 30.17 in - West 10.4 mph 26.5 mph N/A   Unknown
3:52 PM 46.9 °F - 27.0 °F 46% 30.18 in - NW 10.4 mph 21.9 mph N/A   Unknown
4:52 PM 48.0 °F - 25.0 °F 41% 30.18 in - North - - N/A   Unknown
5:52 PM 46.0 °F 43.1 °F 26.1 °F 46% 30.20 in - Variable 5.8 mph - N/A   Unknown
6:52 PM 42.1 °F 40.2 °F 26.1 °F 53% 30.21 in - WNW 3.5 mph - N/A   Unknown
7:52 PM 39.0 °F - 30.0 °F 70% 30.22 in - Calm Calm - N/A   Unknown
8:52 PM 36.0 °F - 30.9 °F 82% 30.22 in - Calm Calm - N/A   Unknown
9:52 PM 35.1 °F - 32.0 °F 89% 30.23 in - Calm Calm - N/A   Unknown
10:52 PM 35.1 °F - 30.0 °F 82% 30.22 in - Calm Calm - N/A   Unknown
11:52 PM 35.1 °F 32.2 °F 30.0 °F 82% 30.21 in - SSW 3.5 mph - N/A   Unknown